Weather History for Christchurch, New Zealand

Change the Weather History Date:

Wednesday, November 23, 2011

  Actual Average Record
Temperature  
Mean Temperature 56 °F -  
Max Temperature 60 °F 63 °F 78 °F (2006)
Min Temperature 51 °F 44 °F 33 °F (2000)
Degree Days  
Heating Degree Days 10    
Growing Degree Days 6 (Base 50)    
Moisture  
Dew Point 48 °F    
Average Humidity 77    
Maximum Humidity 100    
Minimum Humidity 51    
Precipitation  
Precipitation 0.00 in - - ()
Sea Level Pressure  
Sea Level Pressure 29.64 in    
Wind  
Wind Speed 5 mph ()    
Max Wind Speed 15 mph    
Max Gust Speed -    
Visibility 6.2 miles    
Events Rain    
Averages and records for this station are not official NWS values.
T = Trace of Precipitation, MM = Missing Value Source: Averaged Metar Reports

Daily Weather History Graph

Daily Weather History Graph

Search for Another Location

Airport:

Trip Planner

Search our weather history database for the weather conditions in past years. The results will help you decide how hot, cold, wet, or windy it might be!

Date:

Astronomy

Nov. 23, 2011 Rise Set
Actual Time 5:49 AM NZDT 8:43 PM NZDT
Civil Twilight 5:15 AM NZDT 9:17 PM NZDT
Nautical Twilight 4:32 AM NZDT 10:00 PM NZDT
Astronomical Twilight 3:42 AM NZDT 10:50 PM NZDT
Moon 3:55 AM NZDT (11/23) 6:16 PM NZDT (11/23)
Length of Visible Light 16h 01m
Length of Day
14h 54m
Waning Crescent, 8% of the Moon is Illuminated
Nov 23
Waning Crescent
Nov 25
New
Dec 2
First Quarter
Dec 11
Full
Dec 18
Last Quarter

Hourly Weather History & Observations

Time (NZDT) Temp. Dew Point Humidity Pressure Visibility Wind Dir Wind Speed Gust Speed Precip Events Conditions
12:00 AM 55.4 °F 44.6 °F 67% 29.83 in - East 1.2 mph - N/A   Clear
1:00 AM 57.2 °F 41.0 °F 55% 29.83 in - NNW 3.5 mph - N/A   Clear
2:00 AM 53.6 °F 44.6 °F 72% 29.80 in - NE 3.5 mph - N/A   Clear
3:00 AM 51.8 °F 44.6 °F 76% 29.77 in - SE 2.3 mph - N/A   Clear
4:00 AM 53.6 °F 42.8 °F 67% 29.77 in - NE 3.5 mph - N/A   Clear
5:00 AM 59.0 °F 41.0 °F 51% 29.74 in - NNW 6.9 mph - N/A   Clear
6:00 AM 53.6 °F 44.6 °F 72% 29.74 in - ESE 2.3 mph - N/A   Clear
7:00 AM 53.6 °F 46.4 °F 77% 29.74 in - NE 5.8 mph - N/A   Clear
8:00 AM 55.4 °F 46.4 °F 72% 29.71 in - NNE 4.6 mph - N/A   Clear
9:00 AM 55.4 °F 44.6 °F 67% 29.71 in - NE 9.2 mph - N/A   Clear
10:00 AM 57.2 °F 44.6 °F 63% 29.68 in - ENE 9.2 mph - N/A   Clear
11:00 AM 59.0 °F 46.4 °F 63% 29.62 in - East 6.9 mph - N/A   Clear
12:00 PM 60.8 °F 50.0 °F 68% 29.62 in - East 10.4 mph - N/A   Clear
1:00 PM 60.8 °F 50.0 °F 68% 29.59 in - NE 5.8 mph - N/A   Clear
2:00 PM 57.2 °F 50.0 °F 77% 29.56 in 6.2 mi NE 15.0 mph - N/A   Mostly Cloudy
3:00 PM 57.2 °F 51.8 °F 82% 29.56 in 6.2 mi East 9.2 mph - N/A Rain Light Rain
4:00 PM 53.6 °F 50.0 °F 88% 29.56 in 6.2 mi ENE 9.2 mph - N/A Rain Light Rain
5:00 PM 53.6 °F 51.8 °F 94% 29.53 in 6.2 mi NE 9.2 mph - N/A   Mostly Cloudy
6:00 PM 55.4 °F 51.8 °F 88% 29.50 in 6.2 mi NNE 9.2 mph - N/A   Mostly Cloudy
7:00 PM 55.4 °F 53.6 °F 94% 29.50 in - ENE 6.9 mph - N/A   Clear
8:00 PM 53.6 °F 51.8 °F 94% 29.50 in - East 6.9 mph - N/A   Clear
9:00 PM 53.6 °F 51.8 °F 94% 29.50 in - ENE 5.8 mph - N/A   Clear
10:00 PM 51.8 °F 51.8 °F 100% 29.53 in - NNW 2.3 mph - N/A   Clear
11:00 PM 51.8 °F 50.0 °F 94% 29.53 in - NW 3.5 mph - N/A   Clear